This is the latest recevied weather packets stored in our database for station/object KC8JWT. If no packets are shown the sender has not sent any weather packets the latest 10 day(s).
| Time | Temp. | Humidity | Pressure | Rain* | Wind** | Luminosity | Snow |
|---|---|---|---|---|---|---|---|
| 1778108759 | 15.56° C | 68% | 1012.3 hPa | 0 mm | - | 26 W/m² | - |
| 1778108457 | 15.56° C | 65% | 1012.2 hPa | 0 mm | - | 33 W/m² | - |
| 1778108153 | 15.56° C | 63% | 1012.2 hPa | 0 mm | - | 40 W/m² | - |
| 1778107850 | 15.56° C | 63% | 1012 hPa | 0 mm | - | 40 W/m² | - |
| 1778107547 | 15.56° C | 61% | 1012 hPa | 0 mm | - | 38 W/m² | - |
| 1778107243 | 15.56° C | 63% | 1012.1 hPa | 0 mm | - | 40 W/m² | - |
| 1778106939 | 15.56° C | 62% | 1012 hPa | 0 mm | - | 50 W/m² | - |
| 1778106636 | 15.56° C | 61% | 1011.9 hPa | 0 mm | - | 51 W/m² | - |
| 1778106333 | 16.11° C | 61% | 1011.9 hPa | 0 mm | - | 74 W/m² | - |
| 1778106029 | 16.11° C | 59% | 1011.8 hPa | 0 mm | - | 42 W/m² | - |
| 1778104513 | 16.67° C | 74% | 1011.8 hPa | 0 mm | - | 185 W/m² | - |
| 1778104209 | 16.67° C | 74% | 1011.5 hPa | 0 mm | - | 185 W/m² | - |
| 1778103906 | 16.67° C | 74% | 1011.3 hPa | 0 mm | - | 185 W/m² | - |
| 1778103603 | 16.11° C | 73% | 1011.3 hPa | 0 mm | - | 161 W/m² | - |
| 1778102998 | 16.67° C | 74% | 1011.5 hPa | 0 mm | - | 142 W/m² | - |
| 1778102694 | 16.67° C | 74% | 1011.7 hPa | 0 mm | - | 142 W/m² | - |
| 1778102389 | 16.67° C | 74% | 1011.4 hPa | 0 mm | - | 142 W/m² | - |
| 1778102085 | 16.67° C | 74% | 1011.3 hPa | 0 mm | - | 127 W/m² | - |
| 1778101782 | 16.67° C | 75% | 1011.5 hPa | 0 mm | - | 150 W/m² | - |
| 1778101478 | 16.11° C | 76% | 1011.5 hPa | 0 mm | - | 176 W/m² | - |
| 1778101176 | 16.11° C | 76% | 1011.4 hPa | 0 mm | - | 176 W/m² | - |
| 1778100872 | 16.67° C | 73% | 1011.4 hPa | 0 mm | - | 120 W/m² | - |
| 1778100568 | 16.67° C | 73% | 1011.2 hPa | 0 mm | - | 112 W/m² | - |
| 1778100266 | 16.67° C | 73% | 1011.5 hPa | 0 mm | - | 135 W/m² | - |
| 1778099964 | 17.22° C | 75% | 1011.3 hPa | 0 mm | - | 221 W/m² | - |
* Rain latest hour (hover to see other rain measurements)
** Current wind speed in m/s (hover to see current wind gust speed)